Overview Statistics Trail Chart Weather Telemetry Raw packets
 

This is the latest recevied weather packets stored in our database for station/object N5TDX. If no packets are shown the sender has not sent any weather packets the latest 10 day(s).

<< 17 18 19 20 21 22 23 >>
Time Temp. Humidity Pressure Rain* Wind** Luminosity Snow
1788544821 35° C 43% 1011.3 hPa 0 mm - - -
1788544520 34.44° C 45% 1011.7 hPa 0 mm - - -
1788544219 34.44° C 46% 1011.3 hPa 0 mm - - -
1788543914 34.44° C 46% 1011.5 hPa 0 mm - - -
1788543611 34.44° C 47% 1011.7 hPa 0 mm - - -
1788543311 35° C 45% 1011.7 hPa 0 mm - - -
1788543006 34.44° C 46% 1011.8 hPa 0 mm - - -
1788542702 34.44° C 49% 1011.7 hPa 0 mm - - -
1788542401 33.33° C 50% 1011.9 hPa 0 mm - - -
1788542096 32.78° C 51% 1012.1 hPa 0 mm - - -
1788541792 32.78° C 52% 1012 hPa 0 mm - - -
1788541487 32.22° C 53% 1012.1 hPa 0 mm - - -
1788541183 32.78° C 52% 1012 hPa 0 mm - - -
1788540882 33.33° C 50% 1012.2 hPa 0 mm - - -
1788540581 33.89° C 50% 1012.3 hPa 0 mm - - -
1788540276 33.33° C 51% 1012.2 hPa 0 mm - - -
1788539972 33.33° C 52% 1012.1 hPa 0 mm - - -
1788539671 32.22° C 54% 1012.4 hPa 0 mm - - -
1788539365 32.22° C 56% 1012.2 hPa 0 mm - - -
1788539061 31.67° C 56% 1012.1 hPa 0 mm - - -
1788538756 32.22° C 56% 1012.4 hPa 0 mm - - -
1788538451 32.22° C 58% 1012.1 hPa 0 mm - - -
1788538148 31.67° C 58% 1012.2 hPa 0 mm - - -
1788537842 31.67° C 62% 1012.2 hPa 0 mm - - -
1788537538 30.56° C 63% 1012.2 hPa 0 mm - - -

* Rain latest hour (hover to see other rain measurements)
** Current wind speed in m/s (hover to see current wind gust speed)